#timestamp,LO_Frequency,Hit,StdDev 
1711548015.8,286047002.6,N
1711548035.6,286047001.6,N
1711548055.5,286047002.3,N
1711548075.3,286047002.5,N
1711548095.2,286047001.6,N
1711548115.9,286047002.2,N
1711548135.7,286047002.0,N
1711548155.6,286047002.1,N
1711548175.4,286047002.1,N
1711548195.2,286047002.5,N
1711548215.1,286047002.6,N
1711548216.0,286047002.6,N
1711548235.8,286047002.6,N
1711548255.7,286047000.5,N
1711548275.5,286047000.5,N
1711548295.3,286047002.7,N
1711548315.2,286047002.2,N
1711548335.0,286047002.0,N
1711548335.9,286047002.0,N
1711548355.7,286047001.5,N
1711548375.6,286047001.3,N
1711548395.4,286047001.9,N
1711548415.3,286046999.8,N
1711548435.1,286047000.0,N
1711548455.9,286047000.5,N
1711548475.7,286047001.2,N
1711548495.5,286046998.6,N
1711548515.4,286047000.9,N
1711548535.2,286047000.6,N
1711548555.0,286047002.8,N
1711548555.9,286047002.8,N
1711548575.8,286047000.2,N
1711548595.6,286047000.9,N
1711548615.5,286047000.9,N
1711548635.3,286046998.5,N
1711548655.2,286047000.9,N
1711548675.9,286047000.1,N
1711548695.7,286047002.7,N
1711548715.6,286047000.2,N
1711548735.4,286047002.0,N
1711548755.2,286047000.1,N
1711548775.1,286047002.3,N
1711548776.0,286047002.3,N
1711548795.8,286047001.5,N
1711548815.7,286047002.0,N
1711548835.5,286047001.7,N
1711548855.3,286047004.2,Y
1711548875.2,286047001.8,P
1711548895.0,286047001.9,P
1711548895.9,286047001.9,P
1711548915.8,286047000.6,N
1711548935.6,286047000.7,N
1711548955.4,286047000.0,N
1711548975.3,286046999.9,N
1711548995.1,286047000.4,N
1711549015.9,286046999.7,N
1711549035.7,286047002.5,Y
1711549055.5,286047000.4,P
1711549075.4,286046999.9,N
1711549095.2,286047000.1,N
1711549115.0,286047000.3,N
1711549115.9,286047000.3,N
1711549135.8,286047000.5,N
1711549155.6,286047000.2,N
1711549175.5,286047000.6,N
1711549195.3,286047001.1,Y
1711549215.1,286047000.5,P
1711549235.9,286047000.0,N
1711549255.7,286047002.0,P
1711549275.6,286047001.5,N
1711549295.4,286047002.6,Y
1711549315.2,286046998.5,P
1711549335.1,286046999.6,N
1711549336.0,286046999.6,N
1711549355.8,286046999.1,N
1711549375.7,286046996.7,Y
1711549395.5,286046997.3,P
1711549415.3,286046999.4,N
1711549435.2,286046999.1,N
1711549455.0,286046996.8,Y
1711549455.9,286046996.8,P
1711549475.7,286046999.3,N
1711549495.6,286046999.6,N
1711549515.4,286046996.5,Y
1711549535.3,286047001.2,P
1711549555.1,286046998.9,N
1711549575.8,286047001.2,N
1711549595.7,286047001.0,N
1711549615.5,286047000.2,N
1711549635.4,286047002.4,N
1711549655.2,286047001.6,N
1711549675.0,286047002.1,N
1711549675.9,286047002.1,N
1711549695.8,286047000.0,N
1711549715.6,286047002.2,N
1711549735.4,286047002.3,N
1711549755.3,286047002.6,N
1711549775.1,286046999.9,N
1711549795.9,286046999.9,N
1711549815.7,286046999.7,N
1711549835.5,286046999.7,N
1711549855.4,286047000.5,N
1711549875.2,286047002.7,N
1711549895.0,286047001.5,N
1711549895.9,286047001.5,N
1711549915.8,286047004.4,Y
1711549935.6,286047001.5,P
1711549955.5,286047001.5,P
1711549975.3,286047002.7,P
1711549995.1,286047000.1,N
1711550015.9,286047002.4,N
1711550035.7,286047001.5,N
1711550055.5,286047004.4,Y
1711550075.4,286047000.0,P
1711550095.2,286047000.4,N
1711550115.1,286046998.5,N
1711550116.0,286046998.5,N
1711550135.8,286046998.7,N
1711550155.6,286046998.1,N
1711550175.5,286046998.7,N
1711550195.3,286046998.4,N
1711550215.2,286046998.1,N
1711550235.9,286047000.0,N
1711550255.7,286046999.9,N
1711550275.6,286047000.1,N
1711550295.4,286047000.2,N
1711550315.2,286047001.1,N
1711550335.1,286047000.8,N
1711550336.0,286047000.8,N
1711550355.8,286047000.8,N
1711550375.7,286047000.5,N
1711550395.5,286047000.0,N
1711550415.3,286046999.9,N
1711550435.2,286047000.4,N
1711550455.0,286046998.1,N
1711550455.9,286046998.1,N
1711550475.7,286047000.8,N
1711550495.6,286047001.1,N
1711550515.4,286046998.3,N
1711550535.3,286046998.3,N
1711550555.1,286046998.8,N
1711550575.8,286046998.5,N
1711550595.7,286046999.2,N
1711550615.5,286046997.0,N
1711550635.4,286046997.0,N
1711550655.2,286046999.3,N
1711550675.0,286046999.0,N
1711550675.9,286046999.0,N
1711550695.8,286046999.4,N
1711550715.6,286046999.4,N
1711550735.4,286046997.0,N
1711550755.3,286046999.1,N
1711550775.1,286046998.3,N
1711550795.9,286047000.7,N
1711550815.7,286047000.8,N
1711550835.5,286047000.8,N
1711550855.4,286047000.2,N
1711550875.2,286047000.6,N
1711550895.0,286047000.9,N
1711550895.9,286047000.9,N
1711550915.8,286046998.9,N
1711550935.6,286046999.6,N
1711550955.5,286046997.3,N
1711550975.3,286046996.7,N
1711550995.1,286046999.2,N
1711551015.9,286046999.6,N
1711551035.7,286046996.7,N
1711551055.5,286046997.6,N
1711551075.4,286046994.9,Y
1711551095.2,286046996.5,P
1711551115.1,286046998.9,N
1711551116.0,286046998.9,N
1711551135.8,286046998.2,N
1711551155.6,286046998.1,N
1711551175.5,286046999.1,N
1711551195.3,286047000.5,N
1711551215.2,286047000.2,N
1711551235.9,286046998.6,N
1711551255.7,286046998.6,N
1711551275.6,286046999.3,N
1711551295.4,286046998.5,N
1711551315.2,286046998.4,N
1711551335.1,286047000.7,N
1711551336.0,286047000.7,N
1711551355.8,286047000.5,N
1711551375.7,286047000.4,N
1711551395.5,286047000.4,N
1711551415.3,286047000.9,N
1711551435.2,286046998.5,N
1711551455.0,286047001.0,N
1711551455.9,286047001.0,N
1711551475.7,286047000.7,N
1711551495.6,286046998.4,N
1711551515.4,286047001.2,N
1711551535.3,286047000.5,N
1711551555.1,286046999.8,N
1711551556.0,286046999.8,N
1711551575.8,286047000.6,N
1711551595.7,286047000.1,N
